When you browse on this site, cookies collect data to enhance your experience and personalize the content and advertising you see.
Visit our Privacy Policy to learn more. By continuing to use the site, you agree to this use of cookies and data.
  • In United Kingdom
  • List of Countries
  • For 7 days
  • Water Temperature
  • Satellite Maps
  • Weather Map
  • Weather Widgets
  • user-avatar
    Login

    Hourly Weather Aberdare

    Today, 22 July, Monday

    Time Temperature Precipitation Wind Pressure Humidity
    00:00 +15°C° 0 mm 5 mps 743 mmHg 95%
    01:00 +16°C° 0 mm 5 mps 743 mmHg 95%
    02:00 +16°C° 0 mm 5 mps 743 mmHg 95%
    03:00 +16°C° 0 mm 6 mps 742 mmHg 95%
    04:00 +16°C° 0 mm 6 mps 742 mmHg 95%
    05:00 +17°C° 0 mm 5 mps 742 mmHg 95%
    06:00 +17°C° 0 mm 5 mps 742 mmHg 94%
    07:00 +17°C° 0 mm 5 mps 743 mmHg 93%
    08:00 +19°C° 0 mm 5 mps 743 mmHg 91%
    09:00 +19°C° 0 mm 6 mps 743 mmHg 90%
    10:00 +19°C° 0 mm 6 mps 744 mmHg 88%
    11:00 +20°C° 0 mm 5 mps 744 mmHg 87%
    12:00 +20°C° 0 mm 5 mps 744 mmHg 86%
    13:00 +21°C° 0 mm 5 mps 744 mmHg 83%
    14:00 +22°C° 0 mm 5 mps 744 mmHg 79%
    15:00 +23°C° 0 mm 5 mps 744 mmHg 76%
    16:00 +22°C° 0 mm 4 mps 744 mmHg 77%
    17:00 +21°C° 0 mm 4 mps 744 mmHg 79%
    18:00 +21°C° 0 mm 3 mps 743 mmHg 80%
    19:00 +19°C° 0 mm 3 mps 744 mmHg 84%
    20:00 +18°C° 0 mm 2 mps 744 mmHg 88%
    21:00 +16°C° 0 mm 1 mps 744 mmHg 91%
    22:00 +16°C° 0 mm 1 mps 744 mmHg 92%
    23:00 +16°C° 0 mm 1 mps 744 mmHg 92%

    Tomorrow, 23 July, Tuesday

    Time Temperature Precipitation Wind Pressure Humidity
    00:00 +14°C° 0 mm 0 mps 743 mmHg 93%
    01:00 +14°C° 0 mm 0 mps 743 mmHg 93%
    02:00 +14°C° 0 mm 0 mps 743 mmHg 93%
    03:00 +14°C° 0 mm 0 mps 743 mmHg 94%
    04:00 +16°C° 0 mm 1 mps 743 mmHg 94%
    05:00 +16°C° 0 mm 1 mps 742 mmHg 94%
    06:00 +18°C° 0 mm 1 mps 742 mmHg 94%
    07:00 +19°C° 0 mm 2 mps 742 mmHg 89%
    08:00 +20°C° 0 mm 2 mps 742 mmHg 84%
    09:00 +21°C° 0 mm 2 mps 742 mmHg 78%
    10:00 +22°C° 0 mm 3 mps 741 mmHg 74%
    11:00 +24°C° 0 mm 3 mps 741 mmHg 70%
    12:00 +26°C° 0 mm 4 mps 741 mmHg 66%
    13:00 +26°C° 0 mm 5 mps 740 mmHg 66%
    14:00 +27°C° 0 mm 5 mps 740 mmHg 65%
    15:00 +28°C° 0 mm 6 mps 739 mmHg 64%
    16:00 +27°C° 0 mm 6 mps 739 mmHg 68%
    17:00 +26°C° 0 mm 5 mps 738 mmHg 72%
    18:00 +25°C° 0 mm 5 mps 737 mmHg 76%
    19:00 +23°C° 0.2 mm 4 mps 737 mmHg 81%
    20:00 +21°C° 0.2 mm 3 mps 737 mmHg 85%
    21:00 +20°C° 0.2 mm 2 mps 737 mmHg 90%
    22:00 +20°C° 0.9 mm 2 mps 736 mmHg 91%
    23:00 +20°C° 0.9 mm 1 mps 736 mmHg 92%

    Day after tomorrow, 24 July, Wednesday

    Time Temperature Precipitation Wind Pressure Humidity
    00:00 +20°C° 0.9 mm 1 mps 736 mmHg 93%
    01:00 +19°C° 0.3 mm 1 mps 736 mmHg 94%
    02:00 +19°C° 0.3 mm 1 mps 736 mmHg 94%
    03:00 +19°C° 0.3 mm 1 mps 735 mmHg 94%
    04:00 +19°C° 0 mm 1 mps 736 mmHg 95%
    05:00 +19°C° 0 mm 1 mps 736 mmHg 95%
    06:00 +19°C° 0 mm 1 mps 736 mmHg 96%
    07:00 +19°C° 0 mm 2 mps 736 mmHg 89%
    08:00 +20°C° 0 mm 2 mps 736 mmHg 83%
    09:00 +21°C° 0 mm 2 mps 737 mmHg 76%
    10:00 +23°C° 0 mm 2 mps 737 mmHg 74%
    11:00 +22°C° 0 mm 3 mps 737 mmHg 72%
    12:00 +24°C° 0 mm 3 mps 737 mmHg 69%
    13:00 +24°C° 0 mm 3 mps 737 mmHg 70%
    14:00 +24°C° 0 mm 3 mps 737 mmHg 71%
    15:00 +25°C° 0 mm 3 mps 737 mmHg 72%
    16:00 +24°C° 0 mm 3 mps 737 mmHg 74%
    17:00 +24°C° 0 mm 2 mps 737 mmHg 77%
    18:00 +24°C° 0 mm 2 mps 737 mmHg 80%
    19:00 +21°C° 0 mm 2 mps 737 mmHg 84%
    20:00 +20°C° 0 mm 2 mps 737 mmHg 88%
    21:00 +19°C° 0 mm 2 mps 736 mmHg 92%
    22:00 +18°C° 0 mm 2 mps 736 mmHg 93%
    23:00 +18°C° 0 mm 1 mps 736 mmHg 94%

    25 July, Thursday

    Time Temperature Precipitation Wind Pressure Humidity
    00:00 +18°C° 0 mm 1 mps 735 mmHg 94%
    01:00 +18°C° 0 mm 1 mps 735 mmHg 93%
    02:00 +17°C° 0 mm 2 mps 735 mmHg 91%
    03:00 +17°C° 0 mm 2 mps 735 mmHg 90%
    04:00 +17°C° 0 mm 2 mps 734 mmHg 87%
    05:00 +17°C° 0 mm 2 mps 734 mmHg 85%
    06:00 +18°C° 0 mm 2 mps 734 mmHg 82%
    07:00 +19°C° 0 mm 2 mps 734 mmHg 80%
    08:00 +20°C° 0 mm 3 mps 734 mmHg 78%
    09:00 +21°C° 0 mm 3 mps 734 mmHg 76%
    10:00 +22°C° 0 mm 4 mps 734 mmHg 74%
    11:00 +25°C° 0 mm 4 mps 734 mmHg 72%
    12:00 +26°C° 0 mm 5 mps 734 mmHg 70%
    13:00 +26°C° 0 mm 5 mps 734 mmHg 69%
    14:00 +26°C° 0 mm 6 mps 734 mmHg 68%
    15:00 +26°C° 0 mm 6 mps 734 mmHg 67%
    16:00 +24°C° 0 mm 6 mps 734 mmHg 71%
    17:00 +23°C° 0 mm 6 mps 734 mmHg 74%
    18:00 +22°C° 0 mm 6 mps 734 mmHg 78%
    19:00 +21°C° 0 mm 5 mps 734 mmHg 83%
    20:00 +19°C° 0 mm 5 mps 734 mmHg 88%
    21:00 +18°C° 0 mm 4 mps 734 mmHg 93%
    22:00 +17°C° 0 mm 4 mps 734 mmHg 94%
    23:00 +16°C° 0 mm 3 mps 734 mmHg 95%

    26 July, Friday

    Time Temperature Precipitation Wind Pressure Humidity
    00:00 +14°C° 0 mm 3 mps 734 mmHg 96%
    01:00 +14°C° 0 mm 3 mps 734 mmHg 96%
    02:00 +14°C° 0 mm 3 mps 734 mmHg 96%
    03:00 +14°C° 0 mm 4 mps 734 mmHg 96%
    04:00 +15°C° 0 mm 4 mps 734 mmHg 94%
    05:00 +15°C° 0 mm 5 mps 734 mmHg 92%
    06:00 +16°C° 0 mm 5 mps 734 mmHg 90%
    07:00 +16°C° 0.1 mm 6 mps 734 mmHg 87%
    08:00 +17°C° 0.1 mm 6 mps 734 mmHg 85%
    09:00 +18°C° 0.1 mm 7 mps 734 mmHg 82%
    10:00 +18°C° 0.3 mm 7 mps 734 mmHg 84%
    11:00 +18°C° 0.3 mm 7 mps 734 mmHg 85%
    12:00 +18°C° 0.3 mm 7 mps 734 mmHg 87%
    13:00 +18°C° 0.3 mm 7 mps 734 mmHg 86%
    14:00 +18°C° 0.3 mm 7 mps 734 mmHg 86%
    15:00 +18°C° 0.3 mm 7 mps 734 mmHg 86%
    16:00 +17°C° 0.1 mm 7 mps 734 mmHg 86%
    17:00 +16°C° 0.1 mm 7 mps 735 mmHg 86%
    18:00 +15°C° 0.1 mm 7 mps 735 mmHg 86%
    19:00 +15°C° 0.1 mm 6 mps 736 mmHg 89%
    20:00 +14°C° 0.1 mm 5 mps 736 mmHg 92%
    21:00 +13°C° 0.1 mm 5 mps 736 mmHg 95%
    22:00 +12°C° 0 mm 4 mps 737 mmHg 95%
    23:00 +12°C° 0 mm 3 mps 737 mmHg 96%

    27 July, Saturday

    Time Temperature Precipitation Wind Pressure Humidity
    00:00 +11°C° 0 mm 3 mps 737 mmHg 97%
    01:00 +12°C° 0 mm 2 mps 737 mmHg 97%
    02:00 +12°C° 0 mm 2 mps 737 mmHg 97%
    03:00 +11°C° 0 mm 1 mps 737 mmHg 97%
    04:00 +12°C° 0 mm 1 mps 738 mmHg 96%
    05:00 +12°C° 0 mm 2 mps 738 mmHg 95%
    06:00 +12°C° 0 mm 2 mps 738 mmHg 95%
    07:00 +13°C° 0 mm 2 mps 738 mmHg 87%
    08:00 +14°C° 0 mm 3 mps 739 mmHg 80%
    09:00 +16°C° 0 mm 3 mps 739 mmHg 72%
    10:00 +15°C° 0 mm 4 mps 739 mmHg 70%
    11:00 +17°C° 0 mm 4 mps 739 mmHg 68%
    12:00 +18°C° 0 mm 4 mps 739 mmHg 65%
    13:00 +18°C° 0.1 mm 4 mps 739 mmHg 66%
    14:00 +18°C° 0.1 mm 4 mps 739 mmHg 67%
    15:00 +18°C° 0.1 mm 4 mps 739 mmHg 67%
    16:00 +18°C° 0.1 mm 4 mps 739 mmHg 70%
    17:00 +17°C° 0.1 mm 4 mps 739 mmHg 72%
    18:00 +17°C° 0.1 mm 3 mps 740 mmHg 74%
    19:00 +15°C° 0 mm 2 mps 740 mmHg 79%
    20:00 +13°C° 0 mm 1 mps 740 mmHg 84%
    21:00 +11°C° 0 mm 0 mps 740 mmHg 90%
    22:00 +10°C° 0 mm 0 mps 740 mmHg 89%
    23:00 +10°C° 0 mm 0 mps 740 mmHg 89%
    Show more